Orbital Elements at Epoch 2459200.5 (2020-Dec-17.0) TDB
Reference: JPL 22 (heliocentric ecliptic J2000)
Element | Value | Uncertainty (1-sigma) | Units |
e | .2356272050494869 | 3.7439e-08 | |
a | 2.662713967551526 | 8.5884e-09 | au |
q | 2.03530611753113 | 9.9705e-08 | au |
i | 5.215127549685903 | 4.3198e-06 | deg |
node | 357.8116022005667 | 3.6701e-05 | deg |
peri | 336.9250600918846 | 3.7467e-05 | deg |
M | 108.5324656691791 | 6.9889e-06 | deg |
tp | 2458722.043597743918 (2019-Aug-26.54359774) | 3.0111e-05 | TDB |
period | 1587.030237912518 4.35 | 7.6783e-06 2.102e-08 | d yr |
n | .226838778115231 | 1.0975e-09 | deg/d |
Q | 3.290121817571923 | 1.0612e-08 | au |
|
| | Orbit Determination Parameters
Additional Information
|